Stations météo

réclame
Mon MeteoGroup
Caen, France (7027): Température de l'air & dewpoint: 15.08.2019 07:00:00 - 21.08.2019 07:00:00 (CEST)Caen, France (7027): Température de l'air 5cm: 15.08.2019 07:00:00 - 21.08.2019 07:00:00 (CEST)Caen, France (7027): Température de l'air -20cm & Température de l'air -100cm: 15.08.2019 07:00:00 - 21.08.2019 07:00:00 (CEST)Caen, France (7027): Vitesse du vent & gusts: 15.08.2019 07:00:00 - 21.08.2019 07:00:00 (CEST)Caen, France (7027): Direction du vent: 15.08.2019 07:00:00 - 21.08.2019 07:00:00 (CEST)Caen, France (7027): reduced air pressure: 15.08.2019 07:00:00 - 21.08.2019 07:00:00 (CEST)Caen, France (7027): visibility: 15.08.2019 07:00:00 - 21.08.2019 07:00:00 (CEST)Caen, France (7027): Ensoleillement: 15.08.2019 07:00:00 - 21.08.2019 07:00:00 (CEST)Caen, France (7027): Quantités de précipitations: 15.08.2019 07:00:00 - 21.08.2019 07:00:00 (CEST)
Date & Time tt [°C] td [°C] tt 5cm [°C] tt -20cm [°C] tt -100cm [°C] ff [km/h] ff [knt] fx [km/h] fx [knt] dd ppp [hPa] vv [km] sd [min] rr [mm]
21.08.2019 07:00:00 8,5 8,2 4,6 18,5 17,8 7 4 10 5 SW 1028,7 28 0 0,0
21.08.2019 06:00:00 8,4 7,8 5,4 18,6 17,7 3 2 14 7 S 1028,6 26 0 0,0
21.08.2019 05:00:00 8,8 8,3 5,4 18,6 17,7 8 4 10 5 SSW 1028,5 25 0 0,0
21.08.2019 04:00:00 9,5 9,0 5,5 18,7 17,7 4 2 8 4 W 1028,4 20 0 0,0
21.08.2019 03:00:00 9,9 9,3 6,5 18,8 17,7 5 3 8 4 WSW 1028,4 25 0 0,0
21.08.2019 02:00:00 10,8 10,0 7,1 18,9 17,7 3 2 8 4 W 1028,6 25 0 0,0
21.08.2019 01:00:00 11,1 10,3 7,9 18,9 17,7 8 5 12 7 W 1028,6 32 0 0,0
21.08.2019 00:00:00 12,4 10,6 9,5 18,9 17,7 7 4 8 4 SW 1028,7 36 0 0,0
20.08.2019 23:00:00 14,1 11,8 9,5 18,9 17,8 0 0 5 3 N 1028,5 42 0 0,0
20.08.2019 22:00:00 14,2 11,4 10,1 18,9 17,7 4 2 8 5 E 1028,2 45 0 0,0
20.08.2019 21:00:00 16,1 11,5 14,8 18,8 17,7 5 3 18 10 N 1027,7 48 44 0,0
20.08.2019 20:00:00 17,4 11,0 19,7 18,7 17,8 13 7 27 15 N 1027,2 20 60 0,0
20.08.2019 19:00:00 18,5 10,8 23,5 18,5 17,7 14 8 30 16 N 1026,7 44 60 0,0
20.08.2019 18:00:00 19,8 11,3 25,2 18,4 17,8 15 8 32 17 N 1026,3 47 58 0,0
20.08.2019 17:00:00 20,0 11,2 21,8 18,3 17,8 19 10 31 17 NNW 1026,1 20 48 0,0
20.08.2019 16:00:00 20,5 10,6 23,5 18,1 17,7 15 8 39 21 NNW 1025,7 60 39 0,0
20.08.2019 15:00:00 19,8 9,7 22,1 18,0 17,7 12 6 44 24 NNW 1025,5 18 21 0,0
20.08.2019 14:00:00 20,4 9,3 21,3 17,9 17,7 10 6 35 19 WNW 1025,3 45 41 0,0
20.08.2019 13:00:00 20,0 9,0 20,6 17,9 17,7 19 10 37 20 W 1025,3 60 52 0,0
20.08.2019 12:00:00 19,7 11,5 21,9 17,9 17,7 16 8 31 17 W 1025,2 19 54 0,0
20.08.2019 11:00:00 18,1 11,9 21,5 18,0 17,8 16 9 28 15 NW 1025,1 51 60 0,0
20.08.2019 10:00:00 16,7 12,4 17,7 18,1 17,8 15 8 23 12 W 1024,7 45 60 0,0
20.08.2019 09:00:00 14,8 12,8 12,1 18,2 17,8 11 6 17 9 WSW 1024,5 45 60 0,0
20.08.2019 08:00:00 12,0 11,4 8,0 18,2 17,8 13 7 18 10 WSW 1023,9 31 36 0,0
20.08.2019 07:00:00 10,5 10,0 8,4 18,3 17,8 12 7 15 8 WSW 1023,4 29 0 0,0
20.08.2019 06:00:00 10,6 10,1 8,7 18,4 17,8 13 7 17 9 SW 1022,8 29 0 0,0
20.08.2019 05:00:00 10,6 10,0 9,0 18,5 17,8 11 6 16 9 SW 1022,5 35 0 0,0
20.08.2019 04:00:00 12,3 10,9 10,2 18,6 17,8 12 6 18 10 WSW 1022,4 41 0 0,0
20.08.2019 03:00:00 12,2 10,8 10,9 18,7 17,8 11 6 16 9 WSW 1022,6 47 0 0,0
20.08.2019 02:00:00 12,3 11,0 9,9 18,7 17,8 14 7 16 9 WSW 1022,6 47 0 0,0
20.08.2019 01:00:00 12,3 10,7 10,9 18,7 17,8 12 7 18 10 WSW 1022,4 49 0 0,0
20.08.2019 00:00:00 12,8 10,5 10,4 18,8 17,8 14 7 18 10 WSW 1022,3 60 0 0,0
19.08.2019 23:00:00 12,7 9,3 10,4 18,8 17,8 10 6 16 8 W 1022,0 60 0 0,0
19.08.2019 22:00:00 13,9 9,3 11,8 18,7 17,8 12 7 18 10 W 1021,5 60 0 0,0
19.08.2019 21:00:00 16,5 8,9 15,4 18,7 17,8 14 8 31 17 W 1020,8 60 46 0,0
19.08.2019 20:00:00 18,6 9,1 20,0 18,6 17,8 22 12 33 18 W 1020,3 60 56 0,0
19.08.2019 19:00:00 20,1 9,3 21,4 18,5 17,8 21 12 40 22 W 1020,0 56 54 0,0
19.08.2019 18:00:00 21,0 10,2 24,4 18,4 17,8 26 14 49 26 W 1019,8 48 56 0,0
19.08.2019 17:00:00 21,6 9,5 23,6 18,3 17,8 22 12 44 24 W 1019,3 41 52 0,0
19.08.2019 16:00:00 21,6 10,1 21,6 18,2 17,8 26 14 41 22 WSW 1019,2 49 33 0,0
19.08.2019 15:00:00 20,1 11,6 20,7 18,1 17,8 25 13 46 25 W 1019,3 57 27 0,0
19.08.2019 14:00:00 21,2 10,9 19,3 18,1 17,8 27 15 46 25 WSW 1018,7 52 44 0,0
19.08.2019 13:00:00 19,9 12,2 19,8 18,1 17,8 28 15 40 22 SW 1018,5 20 46 0,0
19.08.2019 12:00:00 17,7 14,4 13,8 18,1 17,8 12 7 29 16 W 1018,4 60 31 3,2
19.08.2019 11:00:00 15,8 13,1 15,0 18,2 17,8 20 11 39 21 W 1018,3 8 26 0,2
19.08.2019 10:00:00 16,9 12,8 17,5 18,2 17,8 26 14 36 19 WSW 1017,4 18 58 0,0
19.08.2019 09:00:00 14,7 12,9 13,9 18,3 17,8 20 11 29 16 SW 1017,2 19 43 0,0
19.08.2019 08:00:00 13,2 12,3 11,6 18,4 17,8 20 11 27 15 SW 1016,9 20 37 0,0
19.08.2019 07:00:00 12,2 11,4 11,0 18,5 17,8 17 9 23 12 SSW 1016,4 25 0 0,0
19.08.2019 06:00:00 12,2 11,4 10,5 18,6 17,8 16 9 22 12 SSW 1016,1 28 0 0,0
19.08.2019 05:00:00 12,5 11,2 11,3 18,6 17,8 10 5 22 12 SW 1016,0 38 0 0,0
19.08.2019 04:00:00 12,4 10,8 11,3 18,7 17,8 15 8 22 12 SW 1015,8 42 0 0,0
19.08.2019 03:00:00 12,9 11,3 11,0 18,8 17,8 14 8 26 14 SSW 1015,5 34 0 0,0
19.08.2019 02:00:00 13,8 11,3 12,1 18,8 17,8 18 10 27 15 WSW 1015,1 35 0 0,0
19.08.2019 01:00:00 13,0 11,6 10,9 18,9 17,8 14 7 21 12 WSW 1014,8 32 0 0,0
19.08.2019 00:00:00 14,1 12,0 12,5 18,9 17,8 14 8 20 11 WSW 1014,5 35 0 0,0
18.08.2019 23:00:00 14,0 11,3 12,0 18,9 17,8 16 8 21 11 WSW 1014,1 42 0 0,0
18.08.2019 22:00:00 14,7 10,3 12,9 18,8 17,8 12 7 24 13 WSW 1013,6 49 0 0,0
18.08.2019 21:00:00 16,4 9,6 15,3 18,8 17,8 17 9 34 18 W 1012,7 57 48 0,0
18.08.2019 20:00:00 18,6 9,9 19,3 18,7 17,8 26 14 40 22 W 1012,2 60 53 0,0
18.08.2019 19:00:00 19,3 10,3 20,4 18,6 17,8 28 15 44 24 W 1011,9 60 53 0,0
18.08.2019 18:00:00 20,6 10,1 21,5 18,5 17,8 27 14 48 26 W 1011,6 52 51 0,0
18.08.2019 17:00:00 20,2 9,4 22,1 18,4 17,8 31 17 49 26 W 1011,2 56 48 0,0
18.08.2019 16:00:00 21,1 10,6 20,4 18,3 17,8 32 18 52 28 WSW 1010,7 60 34 0,0
18.08.2019 15:00:00 20,2 11,7 21,8 18,2 17,8 26 14 53 28 W 1010,2 33 46 0,0
18.08.2019 14:00:00 20,0 11,7 20,4 18,1 17,8 29 16 46 25 W 1009,7 36 41 0,0
18.08.2019 13:00:00 20,3 12,8 20,6 18,1 17,8 27 15 39 21 W 1009,2 37 45 0,0
18.08.2019 12:00:00 18,3 14,4 18,2 18,1 17,8 24 13 39 21 W 1008,4 41 21 0,0
18.08.2019 11:00:00 16,8 15,0 16,7 18,2 17,8 18 10 26 14 W 1007,9 52 9 0,0
18.08.2019 10:00:00 15,6 14,5 16,0 18,2 17,8 16 9 24 13 W 1007,0 57 0 0,0
18.08.2019 09:00:00 14,9 14,4 14,1 18,3 17,8 13 7 21 11 W 1005,9 50 3 0,0
18.08.2019 08:00:00 13,7 13,5 13,5 18,4 17,8 11 6 15 8 WNW 1005,3 20 0 0,0
18.08.2019 07:00:00 13,3 13,1 13,4 18,5 17,8 12 6 23 12 ESE 1004,0 20 0 1,0
18.08.2019 06:00:00 13,4 13,2 13,4 18,5 17,9 13 7 26 14 ESE 1004,0 1,0 0 6,5
18.08.2019 05:00:00 13,5 13,3 13,6 18,6 17,8 9 5 14 8 SE 1005,0 3,5 0 3,8
18.08.2019 04:00:00 13,9 13,4 13,6 18,6 17,8 4 2 20 11 SE 1005,6 2,4 0 1,2
18.08.2019 03:00:00 14,0 13,4 13,7 18,6 17,8 13 7 29 15 SSW 1007,2 4,7 0 1,0
18.08.2019 02:00:00 14,9 13,3 14,1 18,7 17,8 18 10 30 16 SW 1007,3 13 0 0,0
18.08.2019 01:00:00 16,0 14,0 15,1 18,7 17,8 18 10 27 15 SSW 1007,9 33 0 0,2
18.08.2019 00:00:00 15,8 15,0 15,2 18,7 17,8 9 5 13 7 SE 1008,0 17 0 0,0
17.08.2019 23:00:00 15,7 14,7 15,1 18,7 17,8 9 5 11 6 SE 1008,7 17 0 0,2
17.08.2019 22:00:00 16,3 14,7 15,2 18,7 17,8 4 2 9 5 SSW 1009,3 23 0 0,4
17.08.2019 21:00:00 16,9 14,2 15,5 18,6 17,8 7 4 11 6 SSW 1009,1 17 0 0,2
17.08.2019 20:00:00 18,2 13,3 17,9 18,6 17,8 10 5 22 12 WSW 1009,2 45 0 0,0
17.08.2019 19:00:00 19,0 13,4 19,2 18,6 17,8 16 8 24 13 W 1009,1 47 0 0,0
17.08.2019 18:00:00 19,6 13,3 20,5 18,5 17,8 18 10 27 14 W 1009,2 47 0 0,0
17.08.2019 17:00:00 19,7 13,8 21,0 18,4 17,8 16 9 29 16 WSW 1009,1 44 6 0,0
17.08.2019 16:00:00 19,2 14,0 19,7 18,4 17,8 16 8 25 13 WSW 1009,3 37 0 0,0
17.08.2019 15:00:00 18,4 15,3 18,7 18,4 17,9 12 6 25 14 W 1009,4 38 0 0,0
17.08.2019 14:00:00 17,7 15,0 17,0 18,4 17,8 16 8 29 16 WSW 1009,1 49 0 0,0
17.08.2019 13:00:00 17,7 16,0 17,0 18,3 17,8 18 10 35 19 WSW 1009,0 34 0 0,0
17.08.2019 12:00:00 17,2 15,5 16,7 18,3 17,8 20 11 34 19 W 1009,0 46 0 0,4
17.08.2019 11:00:00 17,6 16,6 17,6 18,3 17,9 19 11 28 15 WNW 1008,8 3,2 1 0,2
17.08.2019 10:00:00 18,9 18,4 18,5 18,3 17,8 16 8 23 13 SSW 1008,2 6 0 0,2
17.08.2019 09:00:00 18,4 17,9 17,9 18,4 17,9 13 7 24 13 S 1008,2 14 0 0,2
17.08.2019 08:00:00 18,1 17,6 17,6 18,4 17,9 18 10 27 15 SSW 1007,9 16 0 0,2
17.08.2019 07:00:00 18,2 17,4 17,7 18,4 17,9 19 10 30 16 SSW 1007,9 4,7 0 0,4
17.08.2019 06:00:00 18,2 17,2 17,6 18,4 17,9 20 11 35 19 SSW 1007,9 20 0 0,0
17.08.2019 05:00:00 18,0 17,0 17,0 18,4 17,9 21 12 34 18 SSW 1008,0 42 0 0,0
17.08.2019 04:00:00 17,4 16,6 16,9 18,5 17,9 17 9 32 17 SSW 1008,4 15 0 0,0
17.08.2019 03:00:00 17,6 16,1 16,7 18,5 17,9 19 11 39 21 SSW 1008,4 40 0 0,0
17.08.2019 02:00:00 17,6 15,6 16,8 18,5 17,9 23 12 46 25 SSW 1009,3 60 0 0,0
17.08.2019 01:00:00 17,7 15,1 16,6 18,5 17,9 29 15 50 27 SSW 1009,2 60 0 0,0
17.08.2019 00:00:00 17,4 14,5 16,3 18,6 17,9 27 15 43 23 SSW 1009,8 60 0 0,0
16.08.2019 23:00:00 17,3 14,0 15,6 18,6 17,9 25 13 41 22 SSW 1010,5 60 0 0,0
16.08.2019 22:00:00 17,4 14,1 15,6 18,6 17,9 23 12 34 18 S 1010,9 53 0 0,4
16.08.2019 21:00:00 18,5 13,8 16,1 18,5 17,9 22 12 46 25 SSW 1011,0 58 0 0,2
16.08.2019 20:00:00 20,4 12,6 20,1 18,5 17,9 27 15 47 25 SSW 1011,3 60 0 0,0
16.08.2019 19:00:00 20,7 12,7 20,7 18,4 17,9 26 14 47 25 SSW 1011,7 60 0 0,0
16.08.2019 18:00:00 21,1 13,0 21,5 18,4 17,9 29 15 47 25 SSW 1012,4 60 0 0,0
16.08.2019 17:00:00 21,0 12,7 21,8 18,3 17,9 30 16 44 24 SSW 1012,8 54 0 0,0
16.08.2019 16:00:00 21,2 12,3 22,9 18,3 17,9 31 17 48 26 SSW 1013,8 60 0 0,0
16.08.2019 15:00:00 21,0 12,4 23,3 18,2 17,9 27 15 41 22 SSW 1014,4 57 0 0,0
16.08.2019 14:00:00 20,9 11,2 22,0 18,2 17,9 27 15 39 21 SSW 1015,2 60 12 0,0
16.08.2019 13:00:00 20,2 11,9 21,5 18,1 17,9 27 14 45 24 SW 1015,9 60 0 0,0
16.08.2019 12:00:00 21,8 11,8 22,1 18,1 17,9 28 15 41 22 SW 1016,2 60 48 0,0
16.08.2019 11:00:00 19,1 13,9 22,6 18,2 17,9 27 14 37 20 SW 1016,6 55 58 0,0
16.08.2019 10:00:00 17,4 14,3 17,9 18,2 17,9 22 12 31 17 S 1016,9 60 48 0,0
16.08.2019 09:00:00 16,0 13,7 13,9 18,3 17,9 16 9 26 14 S 1017,9 45 42 0,0
16.08.2019 08:00:00 13,9 13,3 12,5 18,4 17,9 9 5 14 8 S 1018,0 33 0 0,0
16.08.2019 07:00:00 13,5 12,9 12,4 18,4 17,9 8 4 16 9 S 1018,3 26 0 0,0
16.08.2019 06:00:00 13,1 12,6 11,7 18,5 17,9 13 7 15 8 S 1018,7 27 0 0,0
16.08.2019 05:00:00 12,6 12,3 10,4 18,6 17,9 10 6 14 8 SSW 1019,4 19 0 0,0
16.08.2019 04:00:00 12,7 12,2 11,2 18,7 17,9 13 7 17 9 SSW 1019,8 19 0 0,0
16.08.2019 03:00:00 12,9 12,4 10,4 18,7 17,9 14 7 17 9 SSW 1020,2 19 0 0,2
16.08.2019 02:00:00 12,6 12,0 10,0 18,8 17,9 8 5 21 12 SSW 1020,4 18 0 0,0
16.08.2019 01:00:00 14,1 13,5 13,0 18,8 18,0 14 7 19 11 WSW 1020,4 20 0 0,0
16.08.2019 00:00:00 14,6 13,3 13,3 18,8 18,0 15 8 21 11 WSW 1020,4 28 0 0,0
15.08.2019 23:00:00 15,4 13,4 13,9 18,8 18,0 14 8 21 11 WSW 1020,4 41 0 0,0
15.08.2019 22:00:00 15,9 13,4 14,3 18,8 18,0 13 7 23 12 WSW 1020,0 50 0 0,0
15.08.2019 21:00:00 17,9 13,6 17,6 18,7 17,9 17 9 35 19 W 1020,1 54 24 0,0
15.08.2019 20:00:00 18,5 13,1 18,5 18,6 18,0 27 15 44 24 W 1019,7 50 24 0,0
15.08.2019 19:00:00 19,8 13,0 20,9 18,5 18,0 27 15 44 24 W 1019,1 60 19 0,0
15.08.2019 18:00:00 20,5 13,0 21,7 18,4 18,0 31 17 50 27 W 1018,5 41 52 0,0
15.08.2019 17:00:00 21,9 13,3 22,6 18,3 18,0 36 19 57 31 W 1018,3 40 26 0,0
15.08.2019 16:00:00 20,9 13,3 22,8 18,2 18,0 35 19 54 29 W 1017,9 31 29 0,0
15.08.2019 15:00:00 21,7 13,8 22,8 18,1 18,0 33 18 54 29 W 1017,6 33 39 0,0
15.08.2019 14:00:00 20,7 13,2 19,5 18,1 18,0 35 19 53 29 W 1017,2 35 22 0,0
15.08.2019 13:00:00 19,3 14,1 17,3 18,1 18,0 30 16 44 24 W 1017,3 36 6 0,0
15.08.2019 12:00:00 20,0 14,1 20,9 18,1 18,0 28 15 43 23 W 1016,6 60 12 0,0
15.08.2019 11:00:00 18,7 14,2 19,8 18,1 18,0 27 15 43 23 W 1016,5 60 15 0,0
15.08.2019 10:00:00 18,7 14,8 17,7 18,1 18,0 24 13 41 22 W 1016,0 46 46 0,0
15.08.2019 09:00:00 16,9 14,4 15,9 18,1 18,0 23 13 37 20 W 1015,4 20 11 0,0
15.08.2019 08:00:00 16,1 13,9 15,1 18,2 18,0 22 12 36 19 W 1015,0 33 15 0,0
15.08.2019 07:00:00 15,8 14,0 15,2 18,2 18,1 24 13 38 21 W 1014,4 29 0 0,0

tt = Température de l'air
td = dewpoint
tt 5cm = Température de l'air 5cm
tt -20cm = Température de l'air -20cm
tt -100cm = Température de l'air -100cm
ff = Vitesse du vent
fx = gusts
dd = Direction du vent
ppp = reduced air pressure
vv = visibility
sd = Ensoleillement
rr = Quantités de précipitations

stations d'obs. à proximité